Powrót do katalogu

SES 18

AktywnyŁącznośćGEO
NORAD 55970·PAYLOAD·🇱🇺 Luxembourg

Wystrzelony Mar 17, 2023 z Cape Canaveral Space Force Station

Loading…

TLE

ŚwieżeSource: CelesTrak SupGP

Epoka: Sep 13, 2026, 23:30 UTC

1 55970C 23038A   26256.97916667 -.00000011  00000+0  00000+0 0  2561
2 55970   0.0513 272.9544 0001977 306.1820  23.2214  1.00272100    12

Śledź SES 18 w czasie rzeczywistym z AllMySat

Download on the App Store